When you browse on this site, cookies collect data to enhance your experience and personalize the content and advertising you see.
Visit our Privacy Policy to learn more. By continuing to use the site, you agree to this use of cookies and data.
  • In Czech Republic
  • List of Countries
  • For 7 days
  • Water Temperature
  • Satellite Maps
  • Weather Map
  • Weather Widgets
  • user-avatar
    Login

    Hourly Weather Arzebelyak

    Today, 18 February, Monday

    Time Temperature Precipitation Wind Pressure Humidity
    00:00 -5°C° 0 mm 3 mps 733 mmHg 93%
    01:00 -5°C° 0.1 mm 3 mps 734 mmHg 94%
    02:00 -4°C° 0.1 mm 3 mps 734 mmHg 94%
    03:00 -4°C° 0 mm 3 mps 734 mmHg 95%
    04:00 -3°C° 0.2 mm 4 mps 734 mmHg 94%
    05:00 -3°C° 0.2 mm 4 mps 734 mmHg 93%
    06:00 -2°C° 0.2 mm 5 mps 735 mmHg 92%
    07:00 -4°C° 0.3 mm 6 mps 735 mmHg 90%
    08:00 -4°C° 0.3 mm 7 mps 736 mmHg 88%
    09:00 -5°C° 0 mm 8 mps 737 mmHg 86%
    10:00 -6°C° 0.1 mm 8 mps 738 mmHg 84%
    11:00 -6°C° 0.1 mm 8 mps 739 mmHg 83%
    12:00 -6°C° 0.1 mm 9 mps 740 mmHg 81%
    13:00 -8°C° 0.1 mm 9 mps 741 mmHg 80%
    14:00 -9°C° 0.1 mm 9 mps 742 mmHg 79%
    15:00 -9°C° 0.1 mm 9 mps 743 mmHg 78%
    16:00 -10°C° 0 mm 8 mps 745 mmHg 78%
    17:00 -11°C° 0 mm 8 mps 746 mmHg 78%
    18:00 -12°C° 0 mm 8 mps 747 mmHg 77%
    19:00 -13°C° 0 mm 8 mps 748 mmHg 77%
    20:00 -15°C° 0 mm 8 mps 749 mmHg 77%
    21:00 -16°C° 0 mm 8 mps 750 mmHg 77%
    22:00 -17°C° 0 mm 7 mps 751 mmHg 78%
    23:00 -17°C° 0 mm 7 mps 752 mmHg 79%

    Tomorrow, 19 February, Tuesday

    Time Temperature Precipitation Wind Pressure Humidity
    00:00 -17°C° 0 mm 6 mps 753 mmHg 79%
    01:00 -18°C° 0 mm 6 mps 753 mmHg 79%
    02:00 -18°C° 0 mm 6 mps 754 mmHg 80%
    03:00 -19°C° 0 mm 5 mps 755 mmHg 80%
    04:00 -19°C° 0 mm 5 mps 755 mmHg 80%
    05:00 -19°C° 0 mm 5 mps 756 mmHg 81%
    06:00 -19°C° 0 mm 5 mps 756 mmHg 81%
    07:00 -18°C° 0 mm 4 mps 757 mmHg 84%
    08:00 -18°C° 0 mm 4 mps 757 mmHg 86%
    09:00 -17°C° 0 mm 4 mps 757 mmHg 88%
    10:00 -15°C° 0 mm 3 mps 757 mmHg 86%
    11:00 -14°C° 0 mm 3 mps 757 mmHg 84%
    12:00 -10°C° 0 mm 2 mps 757 mmHg 82%
    13:00 -12°C° 0 mm 3 mps 756 mmHg 83%
    14:00 -12°C° 0 mm 3 mps 756 mmHg 83%
    15:00 -10°C° 0 mm 3 mps 755 mmHg 84%
    16:00 -10°C° 0.1 mm 3 mps 755 mmHg 85%
    17:00 -12°C° 0.1 mm 4 mps 754 mmHg 85%
    18:00 -12°C° 0.1 mm 4 mps 754 mmHg 86%
    19:00 -11°C° 0.1 mm 4 mps 753 mmHg 88%
    20:00 -10°C° 0.1 mm 3 mps 753 mmHg 90%
    21:00 -9°C° 0.1 mm 3 mps 753 mmHg 92%
    22:00 -9°C° 0 mm 3 mps 753 mmHg 92%
    23:00 -8°C° 0 mm 3 mps 752 mmHg 93%

    Day after tomorrow, 20 February, Wednesday

    Time Temperature Precipitation Wind Pressure Humidity
    00:00 -8°C° 0 mm 3 mps 752 mmHg 93%
    01:00 -8°C° 0 mm 3 mps 752 mmHg 94%
    02:00 -9°C° 0 mm 3 mps 752 mmHg 94%
    03:00 -9°C° 0 mm 3 mps 752 mmHg 94%
    04:00 -9°C° 0 mm 3 mps 752 mmHg 94%
    05:00 -9°C° 0 mm 3 mps 751 mmHg 94%
    06:00 -9°C° 0 mm 3 mps 751 mmHg 95%
    07:00 -9°C° 0 mm 3 mps 751 mmHg 94%
    08:00 -10°C° 0 mm 4 mps 750 mmHg 94%
    09:00 -11°C° 0 mm 4 mps 750 mmHg 94%
    10:00 -10°C° 0 mm 4 mps 750 mmHg 93%
    11:00 -9°C° 0 mm 4 mps 749 mmHg 92%
    12:00 -10°C° 0 mm 5 mps 749 mmHg 90%
    13:00 -8°C° 0 mm 5 mps 749 mmHg 89%
    14:00 -6°C° 0 mm 5 mps 748 mmHg 88%
    15:00 -5°C° 0 mm 5 mps 748 mmHg 87%
    16:00 -6°C° 0 mm 5 mps 748 mmHg 87%
    17:00 -6°C° 0 mm 5 mps 747 mmHg 87%
    18:00 -6°C° 0 mm 5 mps 747 mmHg 87%
    19:00 -6°C° 0.1 mm 5 mps 747 mmHg 89%
    20:00 -5°C° 0.1 mm 5 mps 747 mmHg 90%
    21:00 -5°C° 0.1 mm 5 mps 746 mmHg 91%
    22:00 -5°C° 0.4 mm 5 mps 746 mmHg 91%
    23:00 -5°C° 0.4 mm 5 mps 746 mmHg 92%

    21 February, Thursday

    Time Temperature Precipitation Wind Pressure Humidity
    00:00 -4°C° 0.4 mm 5 mps 745 mmHg 92%
    01:00 -4°C° 0.3 mm 5 mps 745 mmHg 92%
    02:00 -4°C° 0.3 mm 5 mps 745 mmHg 92%
    03:00 -4°C° 0.3 mm 5 mps 745 mmHg 92%
    04:00 -4°C° 0.1 mm 5 mps 744 mmHg 92%
    05:00 -3°C° 0.1 mm 4 mps 744 mmHg 92%
    06:00 -2°C° 0.1 mm 4 mps 744 mmHg 92%
    07:00 -2°C° 0.1 mm 4 mps 744 mmHg 92%
    08:00 -2°C° 0.1 mm 4 mps 744 mmHg 92%
    09:00 -1°C° 0.1 mm 5 mps 744 mmHg 92%
    10:00 -1°C° 0.1 mm 5 mps 744 mmHg 92%
    11:00 -1°C° 0.1 mm 5 mps 744 mmHg 93%
    12:00 -1°C° 0.1 mm 5 mps 744 mmHg 94%
    13:00 -1°C° 0.1 mm 5 mps 744 mmHg 93%
    14:00 -1°C° 0.1 mm 5 mps 743 mmHg 92%
    15:00 -1°C° 0.1 mm 5 mps 743 mmHg 91%
    16:00 -1°C° 0.2 mm 4 mps 743 mmHg 91%
    17:00 -1°C° 0.2 mm 4 mps 743 mmHg 91%
    18:00 -1°C° 0.2 mm 4 mps 742 mmHg 91%
    19:00 -1°C° 0.1 mm 3 mps 742 mmHg 93%
    20:00 -1°C° 0.1 mm 3 mps 742 mmHg 94%
    21:00 -1°C° 0.1 mm 2 mps 741 mmHg 95%
    22:00 -2°C° 0.2 mm 2 mps 741 mmHg 96%
    23:00 0°C° 0.2 mm 1 mps 741 mmHg 97%

    22 February, Friday

    Time Temperature Precipitation Wind Pressure Humidity
    00:00 -2°C° 0.2 mm 0 mps 741 mmHg 97%
    01:00 -1°C° 0.2 mm 1 mps 741 mmHg 97%
    02:00 -1°C° 0.2 mm 1 mps 741 mmHg 97%
    03:00 -3°C° 0.2 mm 2 mps 741 mmHg 97%
    04:00 -5°C° 0.2 mm 3 mps 742 mmHg 95%
    05:00 -7°C° 0.2 mm 5 mps 742 mmHg 94%
    06:00 -9°C° 0.2 mm 7 mps 743 mmHg 92%
    07:00 -11°C° 0 mm 7 mps 743 mmHg 91%
    08:00 -13°C° 0 mm 7 mps 744 mmHg 90%
    09:00 -14°C° 0 mm 7 mps 745 mmHg 89%
    10:00 -14°C° 0.1 mm 7 mps 746 mmHg 88%
    11:00 -14°C° 0.1 mm 7 mps 747 mmHg 87%
    12:00 -14°C° 0.1 mm 7 mps 748 mmHg 87%
    13:00 -15°C° 0.2 mm 7 mps 749 mmHg 86%
    14:00 -15°C° 0.2 mm 7 mps 750 mmHg 86%
    15:00 -16°C° 0.2 mm 6 mps 750 mmHg 86%
    16:00 -16°C° 0.1 mm 6 mps 751 mmHg 86%
    17:00 -17°C° 0.1 mm 6 mps 752 mmHg 86%
    18:00 -17°C° 0.1 mm 5 mps 753 mmHg 87%
    19:00 -17°C° 0 mm 5 mps 754 mmHg 87%
    20:00 -17°C° 0 mm 5 mps 754 mmHg 88%
    21:00 -16°C° 0 mm 4 mps 755 mmHg 88%
    22:00 -16°C° 0 mm 4 mps 755 mmHg 89%
    23:00 -17°C° 0 mm 4 mps 756 mmHg 89%

    23 February, Saturday

    Time Temperature Precipitation Wind Pressure Humidity
    00:00 -17°C° 0 mm 4 mps 756 mmHg 89%
    01:00 -17°C° 0 mm 4 mps 757 mmHg 90%
    02:00 -17°C° 0 mm 4 mps 757 mmHg 90%
    03:00 -17°C° 0 mm 4 mps 758 mmHg 90%
    04:00 -18°C° 0 mm 4 mps 758 mmHg 90%
    05:00 -18°C° 0 mm 4 mps 759 mmHg 91%
    06:00 -19°C° 0 mm 4 mps 759 mmHg 91%
    07:00 -19°C° 0 mm 4 mps 759 mmHg 91%
    08:00 -19°C° 0 mm 4 mps 760 mmHg 90%
    09:00 -19°C° 0 mm 4 mps 760 mmHg 90%
    10:00 -18°C° 0 mm 3 mps 760 mmHg 89%
    11:00 -17°C° 0 mm 3 mps 761 mmHg 88%
    12:00 -17°C° 0 mm 3 mps 761 mmHg 88%
    13:00 -17°C° 0 mm 3 mps 761 mmHg 87%
    14:00 -16°C° 0 mm 3 mps 761 mmHg 87%
    15:00 -16°C° 0 mm 3 mps 761 mmHg 87%
    16:00 -16°C° 0 mm 2 mps 761 mmHg 89%
    17:00 -17°C° 0 mm 2 mps 762 mmHg 91%
    18:00 -18°C° 0 mm 2 mps 762 mmHg 94%
    19:00 -17°C° 0 mm 1 mps 763 mmHg 94%
    20:00 -18°C° 0 mm 1 mps 763 mmHg 95%
    21:00 -18°C° 0 mm 1 mps 763 mmHg 96%
    22:00 -19°C° 0 mm 1 mps 763 mmHg 97%
    23:00 -19°C° 0 mm 1 mps 763 mmHg 97%
    Show more